DAL1102 KATL-KSTL

Flight info

Callsign DAL1102
Flight time 1h 16m
Altitude 32000
Route PENCL2 JAACE BNA BOOSH3
Aircraft B739/M-SDE2E3FGHIRWXY/LB1

Departure

Time 2026-05-07 16:01
Airport Hartsfield Jackson Atlanta International Airport (KATL)

Arrival

Time 2026-05-07 17:17
Airport St. Louis Lambert International Airport (KSTL)
Time Latitude Longitude Altitude Speed Heading
2026-05-07 15:47 33.64173 -84.43870 1034 ft 0 kts 269°
2026-05-07 15:50 33.64173 -84.43856 1034 ft 4 kts 268°
2026-05-07 15:51 33.64173 -84.43824 1034 ft 4 kts 285°
2026-05-07 15:51 33.64161 -84.43798 1034 ft 4 kts 322°
2026-05-07 15:51 33.64142 -84.43788 1034 ft 1 kts 360°
2026-05-07 15:53 33.64177 -84.43789 1036 ft 10 kts 360°
2026-05-07 15:54 33.64251 -84.43789 1034 ft 11 kts 360°
2026-05-07 15:54 33.64324 -84.43789 1034 ft 10 kts 360°
2026-05-07 15:54 33.64396 -84.43784 1034 ft 12 kts 12°
2026-05-07 15:54 33.64458 -84.43675 1035 ft 22 kts 84°
2026-05-07 15:55 33.64460 -84.43485 1035 ft 23 kts 91°
2026-05-07 15:55 33.64458 -84.43298 1035 ft 22 kts 90°
2026-05-07 15:55 33.64459 -84.43117 1035 ft 21 kts 90°
2026-05-07 15:55 33.64460 -84.42941 1035 ft 21 kts 89°
2026-05-07 15:56 33.64462 -84.42770 1034 ft 20 kts 89°
2026-05-07 15:56 33.64464 -84.42605 1034 ft 20 kts 89°
2026-05-07 15:56 33.64469 -84.42445 1034 ft 19 kts 88°
2026-05-07 15:56 33.64475 -84.42290 1034 ft 18 kts 84°
2026-05-07 15:57 33.64522 -84.42152 1034 ft 18 kts 64°
2026-05-07 15:57 33.64540 -84.42011 1034 ft 18 kts 94°
2026-05-07 15:57 33.64540 -84.41838 1035 ft 22 kts 87°
2026-05-07 15:57 33.64542 -84.41659 1035 ft 21 kts 90°
2026-05-07 15:58 33.64544 -84.41485 1035 ft 21 kts 89°
2026-05-07 15:58 33.64545 -84.41316 1035 ft 20 kts 89°
2026-05-07 15:58 33.64546 -84.41153 1035 ft 19 kts 90°
2026-05-07 15:58 33.64547 -84.40995 1034 ft 19 kts 90°
2026-05-07 15:59 33.64548 -84.40843 1034 ft 18 kts 80°
2026-05-07 15:59 33.64569 -84.40698 1034 ft 17 kts 90°
2026-05-07 15:59 33.64596 -84.40577 1033 ft 13 kts 32°
2026-05-07 15:59 33.64672 -84.40580 1032 ft 8 kts 307°
2026-05-07 16:00 33.64679 -84.40685 1032 ft 25 kts 270°
2026-05-07 16:00 33.64678 -84.41174 1035 ft 91 kts 270°
2026-05-07 16:00 33.64679 -84.42165 1032 ft 145 kts 269°
2026-05-07 16:00 33.64691 -84.43523 1252 ft 169 kts 271°
2026-05-07 16:01 33.64725 -84.44974 1819 ft 180 kts 274°
2026-05-07 16:01 33.64781 -84.46466 2573 ft 174 kts 275°
2026-05-07 16:01 33.65100 -84.47849 3117 ft 182 kts 298°
2026-05-07 16:01 33.65731 -84.49298 3313 ft 205 kts 295°
2026-05-07 16:02 33.66395 -84.50911 3523 ft 223 kts 295°
2026-05-07 16:02 33.67104 -84.52646 3739 ft 242 kts 294°
2026-05-07 16:02 33.67857 -84.54486 4283 ft 247 kts 294°
2026-05-07 16:02 33.68766 -84.56220 5198 ft 248 kts 309°
2026-05-07 16:03 33.70166 -84.57491 5939 ft 259 kts 325°
2026-05-07 16:03 33.71901 -84.58181 6642 ft 272 kts 349°
2026-05-07 16:03 33.73820 -84.58206 7311 ft 278 kts 354°
2026-05-07 16:03 33.75766 -84.58164 7961 ft 283 kts 353°
2026-05-07 16:04 33.77730 -84.58127 8567 ft 288 kts 352°
2026-05-07 16:04 33.79743 -84.58096 9278 ft 290 kts 352°
2026-05-07 16:04 33.81798 -84.58073 9950 ft 294 kts 351°
2026-05-07 16:04 33.83867 -84.58090 10356 ft 306 kts 351°
2026-05-07 16:05 33.86034 -84.58371 10487 ft 319 kts 340°
2026-05-07 16:05 33.88213 -84.59029 10630 ft 336 kts 337°
2026-05-07 16:05 33.90552 -84.59846 10769 ft 355 kts 336°
2026-05-07 16:05 33.92941 -84.60689 10893 ft 372 kts 337°
2026-05-07 16:06 33.95515 -84.61575 11140 ft 384 kts 338°
2026-05-07 16:06 33.98077 -84.62430 11509 ft 390 kts 338°
2026-05-07 16:06 34.00695 -84.63285 12069 ft 391 kts 338°
2026-05-07 16:06 34.03369 -84.64150 12538 ft 395 kts 338°
2026-05-07 16:07 34.06039 -84.65014 13021 ft 398 kts 338°
2026-05-07 16:07 34.08726 -84.65882 13470 ft 401 kts 337°
2026-05-07 16:07 34.11400 -84.66746 13907 ft 405 kts 337°
2026-05-07 16:07 34.14133 -84.67631 14325 ft 408 kts 337°
2026-05-07 16:08 34.16880 -84.68521 14831 ft 409 kts 336°
2026-05-07 16:08 34.19630 -84.69412 15358 ft 410 kts 336°
2026-05-07 16:08 34.22398 -84.70311 15795 ft 414 kts 336°
2026-05-07 16:08 34.25194 -84.71222 16191 ft 417 kts 335°
2026-05-07 16:09 34.27964 -84.72229 16603 ft 415 kts 332°
2026-05-07 16:09 34.30688 -84.73358 16981 ft 415 kts 331°
2026-05-07 16:09 34.33409 -84.74539 17363 ft 416 kts 330°
2026-05-07 16:09 34.36137 -84.75735 17717 ft 418 kts 330°
2026-05-07 16:10 34.38884 -84.76932 18070 ft 420 kts 330°
2026-05-07 16:10 34.41643 -84.78122 18379 ft 422 kts 330°
2026-05-07 16:10 34.44417 -84.79311 18653 ft 423 kts 330°
2026-05-07 16:10 34.47203 -84.80498 18919 ft 425 kts 330°
2026-05-07 16:11 34.50002 -84.81687 19166 ft 427 kts 330°
2026-05-07 16:11 34.52812 -84.82879 19423 ft 429 kts 330°
2026-05-07 16:11 34.55636 -84.84078 19681 ft 430 kts 330°
2026-05-07 16:11 34.58465 -84.85279 19976 ft 431 kts 330°
2026-05-07 16:12 34.61304 -84.86486 20207 ft 433 kts 330°
2026-05-07 16:12 34.64153 -84.87699 20450 ft 435 kts 330°
2026-05-07 16:12 34.67003 -84.88913 20702 ft 436 kts 330°
2026-05-07 16:12 34.69874 -84.90138 20940 ft 438 kts 330°
2026-05-07 16:13 34.72752 -84.91366 21153 ft 439 kts 330°
2026-05-07 16:13 34.75641 -84.92599 21371 ft 441 kts 330°
2026-05-07 16:13 34.78536 -84.93836 21583 ft 442 kts 330°
2026-05-07 16:13 34.81441 -84.95078 21803 ft 443 kts 329°
2026-05-07 16:14 34.84359 -84.96327 22008 ft 445 kts 329°
2026-05-07 16:14 34.87283 -84.97579 22196 ft 446 kts 329°
2026-05-07 16:14 34.90220 -84.98838 22365 ft 448 kts 329°
2026-05-07 16:14 34.93157 -85.00098 22565 ft 449 kts 329°
2026-05-07 16:15 34.96115 -85.01367 22765 ft 450 kts 329°
2026-05-07 16:15 34.99072 -85.02638 22951 ft 451 kts 329°
2026-05-07 16:15 35.02037 -85.03912 23147 ft 452 kts 329°
2026-05-07 16:15 35.05009 -85.05190 23318 ft 454 kts 329°
2026-05-07 16:16 35.07989 -85.06473 23519 ft 454 kts 329°
2026-05-07 16:16 35.10814 -85.08050 23652 ft 437 kts 317°
2026-05-07 16:16 35.13109 -85.10341 23802 ft 419 kts 304°
2026-05-07 16:16 35.14944 -85.13063 23980 ft 413 kts 300°
2026-05-07 16:17 35.16680 -85.15789 24138 ft 413 kts 299°
2026-05-07 16:17 35.18441 -85.18569 24274 ft 414 kts 299°
2026-05-07 16:17 35.20209 -85.21352 24422 ft 415 kts 299°
2026-05-07 16:17 35.21991 -85.24137 24553 ft 415 kts 300°
2026-05-07 16:18 35.23774 -85.26912 24690 ft 416 kts 300°
2026-05-07 16:18 35.25568 -85.29692 24837 ft 416 kts 299°
2026-05-07 16:18 35.27363 -85.32473 24964 ft 417 kts 300°
2026-05-07 16:18 35.29160 -85.35256 25091 ft 417 kts 300°
2026-05-07 16:19 35.30957 -85.38041 25221 ft 418 kts 299°
2026-05-07 16:19 35.32763 -85.40841 25354 ft 418 kts 299°
2026-05-07 16:19 35.34562 -85.43633 25469 ft 418 kts 299°
2026-05-07 16:19 35.36364 -85.46430 25579 ft 419 kts 299°
2026-05-07 16:20 35.38171 -85.49240 25695 ft 419 kts 299°
2026-05-07 16:20 35.39972 -85.52045 25802 ft 420 kts 299°
2026-05-07 16:20 35.41778 -85.54859 25896 ft 420 kts 299°
2026-05-07 16:20 35.43586 -85.57679 25979 ft 421 kts 299°
2026-05-07 16:21 35.45393 -85.60498 26067 ft 421 kts 299°
2026-05-07 16:21 35.47203 -85.63324 26180 ft 421 kts 299°
2026-05-07 16:21 35.49009 -85.66145 26337 ft 420 kts 299°
2026-05-07 16:21 35.50812 -85.68964 26413 ft 420 kts 299°
2026-05-07 16:22 35.52613 -85.71782 26574 ft 419 kts 299°
2026-05-07 16:22 35.54406 -85.74588 26777 ft 417 kts 298°
2026-05-07 16:22 35.56195 -85.77390 26905 ft 417 kts 299°
2026-05-07 16:22 35.57982 -85.80186 27045 ft 417 kts 298°
2026-05-07 16:23 35.59773 -85.82987 27253 ft 416 kts 298°
2026-05-07 16:23 35.61526 -85.85730 27432 ft 415 kts 298°
2026-05-07 16:23 35.63332 -85.88559 27633 ft 414 kts 298°
2026-05-07 16:23 35.65107 -85.91343 27792 ft 413 kts 298°
2026-05-07 16:24 35.66874 -85.94117 27998 ft 412 kts 298°
2026-05-07 16:24 35.68640 -85.96890 28216 ft 411 kts 298°
2026-05-07 16:24 35.70399 -85.99658 28399 ft 410 kts 298°
2026-05-07 16:24 35.72131 -86.02384 28582 ft 410 kts 298°
2026-05-07 16:25 35.73885 -86.05148 28803 ft 409 kts 298°
2026-05-07 16:25 35.75633 -86.07903 29048 ft 408 kts 298°
2026-05-07 16:25 35.77372 -86.10646 29304 ft 406 kts 298°
2026-05-07 16:25 35.79133 -86.13428 29536 ft 406 kts 298°
2026-05-07 16:26 35.80844 -86.16132 29805 ft 405 kts 297°
2026-05-07 16:26 35.81681 -86.17455 29933 ft 404 kts 297°
2026-05-07 16:26 35.82846 -86.19298 30107 ft 403 kts 297°
2026-05-07 16:27 35.84765 -86.22336 30361 ft 402 kts 297°
2026-05-07 16:27 35.86841 -86.25625 30657 ft 400 kts 297°
2026-05-07 16:27 35.88548 -86.28334 30865 ft 400 kts 297°
2026-05-07 16:28 35.90254 -86.31040 31118 ft 398 kts 297°
2026-05-07 16:28 35.91951 -86.33735 31400 ft 396 kts 297°
2026-05-07 16:28 35.93635 -86.36411 31691 ft 394 kts 297°
2026-05-07 16:28 35.95312 -86.39079 31956 ft 392 kts 296°
2026-05-07 16:29 35.96801 -86.41450 32048 ft 393 kts 296°
2026-05-07 16:29 35.98131 -86.43573 32082 ft 393 kts 296°
2026-05-07 16:30 36.01475 -86.48909 32112 ft 391 kts 296°
2026-05-07 16:30 36.04801 -86.54222 32104 ft 390 kts 296°
2026-05-07 16:31 36.08113 -86.59522 32106 ft 389 kts 296°
2026-05-07 16:31 36.11421 -86.64822 32107 ft 389 kts 296°
2026-05-07 16:32 36.14478 -86.70244 32101 ft 375 kts 287°
2026-05-07 16:32 36.16740 -86.76043 32109 ft 374 kts 286°
2026-05-07 16:33 36.18994 -86.81848 32087 ft 374 kts 287°
2026-05-07 16:33 36.21260 -86.87651 32082 ft 375 kts 287°
2026-05-07 16:34 36.23532 -86.93452 32095 ft 374 kts 287°
2026-05-07 16:34 36.25805 -86.99254 32077 ft 374 kts 287°
2026-05-07 16:35 36.28069 -87.05044 32092 ft 373 kts 287°
2026-05-07 16:35 36.30330 -87.10835 32086 ft 373 kts 287°
2026-05-07 16:36 36.32585 -87.16622 32093 ft 373 kts 287°
2026-05-07 16:36 36.34837 -87.22414 32101 ft 373 kts 287°
2026-05-07 16:37 36.37085 -87.28205 32103 ft 373 kts 287°
2026-05-07 16:37 36.39330 -87.33996 32108 ft 372 kts 286°
2026-05-07 16:38 36.41570 -87.39788 32119 ft 372 kts 287°
2026-05-07 16:38 36.43793 -87.45544 32116 ft 372 kts 286°
2026-05-07 16:39 36.46031 -87.51351 32129 ft 372 kts 286°
2026-05-07 16:39 36.48263 -87.57154 32125 ft 372 kts 286°
2026-05-07 16:40 36.50492 -87.62957 32126 ft 372 kts 286°
2026-05-07 16:40 36.52719 -87.68767 32115 ft 372 kts 286°
2026-05-07 16:41 36.54943 -87.74581 32123 ft 372 kts 286°
2026-05-07 16:41 36.57166 -87.80402 32114 ft 373 kts 286°
2026-05-07 16:42 36.59386 -87.86226 32118 ft 373 kts 286°
2026-05-07 16:42 36.61604 -87.92055 32116 ft 372 kts 286°
2026-05-07 16:43 36.63818 -87.97883 32125 ft 373 kts 286°
2026-05-07 16:43 36.66031 -88.03723 32125 ft 373 kts 286°
2026-05-07 16:44 36.68241 -88.09563 32127 ft 373 kts 286°
2026-05-07 16:44 36.70448 -88.15408 32119 ft 373 kts 286°
2026-05-07 16:45 36.72651 -88.21251 32136 ft 373 kts 286°
2026-05-07 16:45 36.74838 -88.27066 32125 ft 373 kts 286°
2026-05-07 16:46 36.77037 -88.32919 32135 ft 373 kts 286°
2026-05-07 16:46 36.79233 -88.38778 32131 ft 373 kts 286°
2026-05-07 16:47 36.81428 -88.44646 32122 ft 373 kts 286°
2026-05-07 16:47 36.83619 -88.50512 32120 ft 373 kts 286°
2026-05-07 16:48 36.85805 -88.56378 32120 ft 373 kts 286°
2026-05-07 16:48 36.87990 -88.62250 32122 ft 373 kts 286°
2026-05-07 16:49 36.90171 -88.68124 32125 ft 373 kts 286°
2026-05-07 16:49 36.91263 -88.71069 31961 ft 375 kts 286°
2026-05-07 16:49 36.92355 -88.74020 31716 ft 373 kts 286°
2026-05-07 16:49 36.93443 -88.76959 31474 ft 374 kts 286°
2026-05-07 16:50 36.94535 -88.79914 31244 ft 375 kts 286°
2026-05-07 16:50 36.95632 -88.82887 31008 ft 377 kts 286°
2026-05-07 16:50 36.96732 -88.85869 30775 ft 379 kts 286°
2026-05-07 16:50 36.97836 -88.88865 30547 ft 380 kts 287°
2026-05-07 16:51 36.98943 -88.91873 30314 ft 382 kts 287°
2026-05-07 16:51 37.00056 -88.94896 30187 ft 383 kts 287°
2026-05-07 16:51 37.01171 -88.97931 30137 ft 385 kts 287°
2026-05-07 16:52 37.03401 -89.03996 30135 ft 382 kts 287°
2026-05-07 16:52 37.05616 -89.10040 30136 ft 382 kts 287°
2026-05-07 16:53 37.07826 -89.16087 30139 ft 382 kts 287°
2026-05-07 16:53 37.10037 -89.22149 30137 ft 383 kts 287°
2026-05-07 16:54 37.12232 -89.28176 30144 ft 383 kts 287°
2026-05-07 16:54 37.14454 -89.34290 30135 ft 383 kts 287°
2026-05-07 16:55 37.16641 -89.40321 30138 ft 383 kts 287°
2026-05-07 16:55 37.18841 -89.46398 30140 ft 383 kts 287°
2026-05-07 16:56 37.21045 -89.52464 30140 ft 381 kts 289°
2026-05-07 16:56 37.22576 -89.55246 30154 ft 393 kts 300°
2026-05-07 16:56 37.26957 -89.59665 30143 ft 425 kts 320°
2026-05-07 16:57 37.29689 -89.61245 29561 ft 440 kts 323°
2026-05-07 16:57 37.32518 -89.62748 28761 ft 442 kts 324°
2026-05-07 16:57 37.35357 -89.64215 28089 ft 438 kts 324°
2026-05-07 16:57 37.38158 -89.65673 27424 ft 433 kts 324°
2026-05-07 16:58 37.40921 -89.67143 26779 ft 428 kts 324°
2026-05-07 16:58 37.43645 -89.68620 26117 ft 425 kts 323°
2026-05-07 16:58 37.46347 -89.70100 25480 ft 423 kts 323°
2026-05-07 16:58 37.49020 -89.71566 25166 ft 412 kts 323°
2026-05-07 16:59 37.51621 -89.72986 24897 ft 402 kts 323°
2026-05-07 16:59 37.54144 -89.74363 24719 ft 389 kts 322°
2026-05-07 16:59 37.56612 -89.75719 24155 ft 388 kts 322°
2026-05-07 16:59 37.59079 -89.77082 23635 ft 387 kts 322°
2026-05-07 17:00 37.61548 -89.78446 23062 ft 385 kts 322°
2026-05-07 17:00 37.63994 -89.79793 22550 ft 382 kts 322°
2026-05-07 17:00 37.66411 -89.81122 22039 ft 378 kts 322°
2026-05-07 17:00 37.68810 -89.82443 21546 ft 374 kts 323°
2026-05-07 17:01 37.71185 -89.83753 21060 ft 370 kts 323°
2026-05-07 17:01 37.73537 -89.85052 20585 ft 367 kts 323°
2026-05-07 17:01 37.75864 -89.86338 20096 ft 364 kts 323°
2026-05-07 17:01 37.78173 -89.87617 19520 ft 360 kts 323°
2026-05-07 17:02 37.80443 -89.88870 19030 ft 351 kts 324°
2026-05-07 17:02 37.82623 -89.90074 18573 ft 343 kts 324°
2026-05-07 17:02 37.84811 -89.91284 18059 ft 335 kts 324°
2026-05-07 17:02 37.86892 -89.92434 17578 ft 327 kts 324°
2026-05-07 17:03 37.88958 -89.93552 17120 ft 320 kts 324°
2026-05-07 17:03 37.90985 -89.94635 16685 ft 313 kts 324°
2026-05-07 17:03 37.92972 -89.95699 16251 ft 308 kts 326°
2026-05-07 17:03 37.94939 -89.96760 15851 ft 308 kts 324°
2026-05-07 17:04 37.96922 -89.97871 15435 ft 317 kts 324°
2026-05-07 17:04 37.98978 -89.99046 14965 ft 328 kts 325°
2026-05-07 17:04 38.01062 -90.00232 14606 ft 328 kts 330°
2026-05-07 17:04 38.03144 -90.01413 14116 ft 328 kts 330°
2026-05-07 17:05 38.05226 -90.02582 13621 ft 326 kts 330°
2026-05-07 17:05 38.07291 -90.03743 13140 ft 323 kts 330°
2026-05-07 17:05 38.09338 -90.04899 12692 ft 320 kts 331°
2026-05-07 17:05 38.11367 -90.06047 12241 ft 318 kts 331°
2026-05-07 17:06 38.13444 -90.07004 11795 ft 322 kts 343°
2026-05-07 17:06 38.15679 -90.07309 11402 ft 322 kts 351°
2026-05-07 17:06 38.17906 -90.07512 10993 ft 319 kts 351°
2026-05-07 17:06 38.20088 -90.07715 10786 ft 311 kts 350°
2026-05-07 17:07 38.22219 -90.07937 10551 ft 304 kts 350°
2026-05-07 17:07 38.24306 -90.08166 10331 ft 297 kts 350°
2026-05-07 17:07 38.26334 -90.08389 10134 ft 289 kts 350°
2026-05-07 17:07 38.28316 -90.08610 9932 ft 283 kts 350°
2026-05-07 17:08 38.30245 -90.08826 9547 ft 282 kts 350°
2026-05-07 17:08 38.32205 -90.09047 9208 ft 280 kts 351°
2026-05-07 17:08 38.34140 -90.09263 8879 ft 278 kts 351°
2026-05-07 17:08 38.36063 -90.09477 8526 ft 276 kts 351°
2026-05-07 17:09 38.37947 -90.09794 8295 ft 270 kts 347°
2026-05-07 17:09 38.39784 -90.10172 8043 ft 267 kts 347°
2026-05-07 17:09 38.41623 -90.10556 7742 ft 270 kts 347°
2026-05-07 17:09 38.43489 -90.10930 7371 ft 272 kts 349°
2026-05-07 17:10 38.45358 -90.11273 7040 ft 271 kts 350°
2026-05-07 17:10 38.47030 -90.11562 6751 ft 270 kts 349°
2026-05-07 17:10 38.48898 -90.11879 6436 ft 271 kts 350°
2026-05-07 17:10 38.50701 -90.12358 6095 ft 264 kts 341°
2026-05-07 17:11 38.52431 -90.13043 5750 ft 258 kts 340°
2026-05-07 17:11 38.54126 -90.13675 5469 ft 251 kts 341°
2026-05-07 17:11 38.55792 -90.14274 5151 ft 248 kts 341°
2026-05-07 17:11 38.57437 -90.14843 4856 ft 243 kts 344°
2026-05-07 17:12 38.59088 -90.15270 4602 ft 234 kts 346°
2026-05-07 17:12 38.60642 -90.15641 4356 ft 227 kts 346°
2026-05-07 17:12 38.62202 -90.16017 4080 ft 224 kts 346°
2026-05-07 17:12 38.63714 -90.16384 3879 ft 219 kts 345°
2026-05-07 17:13 38.65112 -90.16916 3672 ft 205 kts 324°
2026-05-07 17:13 38.65803 -90.17721 3496 ft 194 kts 304°
2026-05-07 17:13 38.66559 -90.19145 3291 ft 181 kts 304°
2026-05-07 17:13 38.67217 -90.20480 3047 ft 175 kts 304°
2026-05-07 17:14 38.67842 -90.21752 2816 ft 162 kts 304°
2026-05-07 17:14 38.68422 -90.22927 2614 ft 153 kts 305°
2026-05-07 17:14 38.68987 -90.24073 2408 ft 151 kts 304°
2026-05-07 17:14 38.69530 -90.25176 2212 ft 144 kts 303°
2026-05-07 17:15 38.70060 -90.26252 2030 ft 143 kts 302°
2026-05-07 17:15 38.70598 -90.27343 1848 ft 146 kts 302°
2026-05-07 17:15 38.71144 -90.28443 1618 ft 145 kts 302°
2026-05-07 17:15 38.71660 -90.29470 1399 ft 144 kts 302°
2026-05-07 17:16 38.72214 -90.30556 1203 ft 149 kts 299°
2026-05-07 17:16 38.72752 -90.31703 1027 ft 151 kts 298°
2026-05-07 17:16 38.73314 -90.32850 840 ft 153 kts 300°
2026-05-07 17:16 38.73887 -90.33993 676 ft 152 kts 299°
2026-05-07 17:17 38.74428 -90.35106 582 ft 135 kts 301°
2026-05-07 17:17 38.74711 -90.35673 579 ft 93 kts 301°
2026-05-07 17:17 38.74967 -90.36201 567 ft 60 kts 301°
2026-05-07 17:17 38.75138 -90.36551 564 ft 28 kts 290°
2026-05-07 17:18 38.75077 -90.36769 556 ft 26 kts 246°
2026-05-07 17:18 38.75025 -90.36921 560 ft 11 kts 244°
2026-05-07 17:18 38.74992 -90.37010 558 ft 11 kts 244°
2026-05-07 17:18 38.74959 -90.37097 563 ft 11 kts 243°
2026-05-07 17:19 38.74914 -90.37209 562 ft 16 kts 243°
2026-05-07 17:19 38.74832 -90.37249 557 ft 10 kts 152°
2026-05-07 17:19 38.74799 -90.37172 560 ft 10 kts 104°
2026-05-07 17:19 38.74770 -90.37092 558 ft 11 kts 126°
2026-05-07 17:20 38.74709 -90.36974 563 ft 21 kts 122°
2026-05-07 17:20 38.74629 -90.36801 561 ft 23 kts 116°
2026-05-07 17:20 38.74571 -90.36687 557 ft 11 kts 160°
2026-05-07 17:20 38.74533 -90.36708 551 ft 4 kts 226°
2026-05-07 17:21 38.74522 -90.36725 554 ft 2 kts 229°
2026-05-07 17:21 38.74520 -90.36728 558 ft 0 kts 229°